M I D A S
Marine Information and Data Acquisition System
Tripno 2176 of the Zeeleeuw from 2011-07-07 06:17:24 to 2011-07-07 14:18:31
Back to CruiseResearch ActivitiesStationsMapUnderway DataData graphs

EquipmentUnitsComments
TimeDGPSUTC
LatitudeDGPSDM.mWGS84
LongitudeDGPSDM.mWGS84
SpeedMeteo Stationm/sRelative wind speed
DirectionMeteo StationdegRelative wind direction
TemperatureMeteo Stationdeg CelciusAir temperature
PressureMeteo StationPaAtmospheric pressure
HumidityMeteo Station%Relative humidity
Missing or incorrect values are displayed as -999
Metereological data collected by the RV Zeeleeuw from 2011-07-07 06:18:47 to 2011-07-07 14:28:43
                                                                                    Next 1000 lines
Time Latitude Longitude Speed Direction Temperature Pressure Humidity
2011-07-07 06:18:57 51°13.636 2°56.015 4.3 15 14.8 100690 39
2011-07-07 06:19:01 51°13.636 2°56.012 4.5 19 14.8 100690 41
2011-07-07 06:19:06 51°13.637 2°56.009 3.9 18 14.8 100690 41
2011-07-07 06:19:11 51°13.638 2°56.004 2.5 13 14.8 100690 41
2011-07-07 06:19:17 51°13.64 2°55.997 0.4 26 14.8 100690 41
2011-07-07 06:19:22 51°13.642 2°55.991 0.2 34 14.8 100690 42
2011-07-07 06:19:28 51°13.644 2°55.982 0.1 20 14.8 100690 42
2011-07-07 06:19:33 51°13.646 2°55.975 2.1 20 14.8 100690 41
2011-07-07 06:19:38 51°13.648 2°55.967 2.9 24 14.8 100690 41
2011-07-07 06:19:44 51°13.65 2°55.957 2.9 24 14.8 100690 41
2011-07-07 06:19:48 51°13.652 2°55.95 2.8 19 14.8 100690 41
2011-07-07 06:19:53 51°13.654 2°55.941 2.3 18 14.8 100690 42
2011-07-07 06:19:58 51°13.656 2°55.932 1.2 34 14.8 100690 42
2011-07-07 06:20:03 51°13.659 2°55.922 3.7 41 14.8 100690 41
2011-07-07 06:20:08 51°13.661 2°55.912 0.1 37 14.8 100690 41
2011-07-07 06:20:13 51°13.664 2°55.902 0.1 24 14.8 100700 41
2011-07-07 06:20:18 51°13.666 2°55.892 0.1 29 14.8 100700 41
2011-07-07 06:20:23 51°13.669 2°55.882 0.1 19 14.8 100690 41
2011-07-07 06:20:28 51°13.671 2°55.872 -999 26 14.8 100690 41
2011-07-07 06:20:33 51°13.673 2°55.862 -999 30 14.8 100690 41
2011-07-07 06:20:38 51°13.675 2°55.853 0.7 45 14.8 100690 41
2011-07-07 06:20:43 51°13.677 2°55.844 0.3 37 14.8 100690 41
2011-07-07 06:20:49 51°13.68 2°55.834 0.1 31 14.8 100690 41
2011-07-07 06:20:53 51°13.681 2°55.827 2.8 30 14.8 100690 41
2011-07-07 06:20:58 51°13.683 2°55.82 3.5 31 14.8 100690 41
2011-07-07 06:21:03 51°13.684 2°55.812 3.8 31 14.8 100700 41
2011-07-07 06:21:08 51°13.685 2°55.804 5.1 28 14.8 100700 41
2011-07-07 06:21:13 51°13.686 2°55.797 4.4 28 14.8 100700 40
2011-07-07 06:21:18 51°13.687 2°55.79 4.6 29 14.8 100700 40
2011-07-07 06:21:22 51°13.687 2°55.785 3.7 33 14.8 100690 41
2011-07-07 06:21:27 51°13.688 2°55.778 2.4 78 14.8 100690 41
2011-07-07 06:21:32 51°13.688 2°55.772 4.8 36 14.8 100690 39
2011-07-07 06:21:37 51°13.688 2°55.766 3.6 32 14.8 100690 39
2011-07-07 06:21:42 51°13.688 2°55.761 4.3 33 14.8 100690 40
2011-07-07 06:21:46 51°13.688 2°55.756 2.7 26 14.8 100690 40
2011-07-07 06:21:51 51°13.688 2°55.752 3.6 40 14.8 100690 42
2011-07-07 06:21:56 51°13.688 2°55.747 3.2 34 14.8 100690 42
2011-07-07 06:22:01 51°13.688 2°55.742 3.3 41 14.8 100690 40
2011-07-07 06:22:06 51°13.688 2°55.739 4.1 31 14.8 100690 40
2011-07-07 06:22:10 51°13.688 2°55.736 4.7 29 14.8 100690 42
2011-07-07 06:22:15 51°13.687 2°55.734 2.7 27 14.8 100690 42
2011-07-07 06:22:21 51°13.687 2°55.731 2.6 28 14.8 100690 42
2011-07-07 06:22:26 51°13.687 2°55.729 2.3 42 14.8 100690 42
2011-07-07 06:22:30 51°13.687 2°55.727 3.1 44 14.8 100690 40
2011-07-07 06:22:35 51°13.688 2°55.726 0.1 79 14.8 100690 40
2011-07-07 06:22:40 51°13.688 2°55.726 0.1 36 14.8 100690 42
2011-07-07 06:22:45 51°13.688 2°55.725 -999 37 14.8 100690 42
2011-07-07 06:22:50 51°13.689 2°55.725 -999 36 14.8 100690 41
2011-07-07 06:22:54 51°13.689 2°55.724 -999 79 14.8 100690 41
2011-07-07 06:22:58 51°13.69 2°55.725 -999 36 14.8 100690 41
2011-07-07 06:23:04 51°13.691 2°55.725 -999 79 14.8 100690 41
2011-07-07 06:23:10 51°13.694 2°55.726 -999 35 14.8 100690 41
2011-07-07 06:23:14 51°13.696 2°55.727 -999 79 14.8 100690 41
2011-07-07 06:23:18 51°13.698 2°55.727 -999 35 14.8 100690 41
2011-07-07 06:23:24 51°13.701 2°55.727 -999 78 14.8 100690 41
2011-07-07 06:23:29 51°13.704 2°55.727 -999 35 14.8 100690 41
2011-07-07 06:23:34 51°13.706 2°55.727 -999 79 14.8 100690 41
2011-07-07 06:23:39 51°13.709 2°55.727 -999 35 14.8 100690 41
2011-07-07 06:23:44 51°13.711 2°55.726 -999 286 14.8 100690 41
2011-07-07 06:23:50 51°13.714 2°55.725 -999 39 14.8 100700 41
2011-07-07 06:23:54 51°13.717 2°55.724 -999 79 14.8 100700 41
2011-07-07 06:24:00 51°13.72 2°55.723 -999 36 14.9 100700 41
2011-07-07 06:24:05 51°13.723 2°55.721 -999 79 14.9 100700 41
2011-07-07 06:24:09 51°13.725 2°55.719 -999 35 14.9 100700 40
2011-07-07 06:24:14 51°13.728 2°55.717 -999 286 14.9 100700 40
2011-07-07 06:24:19 51°13.731 2°55.715 -999 38 14.9 100700 40
2011-07-07 06:24:24 51°13.734 2°55.713 -999 282 14.9 100700 41
2011-07-07 06:24:29 51°13.737 2°55.711 -999 38 14.9 100700 41
2011-07-07 06:24:34 51°13.74 2°55.708 -999 78 14.9 100700 41
2011-07-07 06:24:38 51°13.743 2°55.705 -999 38 14.9 100700 41
2011-07-07 06:24:44 51°13.746 2°55.701 -999 282 14.9 100700 41
2011-07-07 06:24:49 51°13.749 2°55.698 -999 38 14.9 100700 41
2011-07-07 06:24:55 51°13.753 2°55.695 -999 79 14.9 100700 41
2011-07-07 06:25:00 51°13.755 2°55.688 -999 268 14.9 100700 41
2011-07-07 06:25:04 51°13.757 2°55.683 -999 83 14.9 100700 41
2011-07-07 06:25:09 51°13.759 2°55.677 -999 37 14.9 100700 41
2011-07-07 06:25:14 51°13.762 2°55.674 -999 282 14.9 100700 41
2011-07-07 06:25:19 51°13.767 2°55.673 -999 35 14.9 100700 41
2011-07-07 06:25:25 51°13.772 2°55.67 -999 281 14.9 100700 41
2011-07-07 06:25:29 51°13.776 2°55.669 -999 38 14.9 100700 41
2011-07-07 06:25:34 51°13.781 2°55.666 -999 79 14.9 100700 41
2011-07-07 06:25:38 51°13.785 2°55.664 -999 267 14.9 100700 41
2011-07-07 06:25:44 51°13.791 2°55.662 -999 281 14.9 100700 41
2011-07-07 06:25:49 51°13.795 2°55.659 -999 270 14.9 100700 41
2011-07-07 06:25:54 51°13.8 2°55.656 -999 83 14.9 100700 41
2011-07-07 06:26:00 51°13.805 2°55.651 -999 37 14.9 100700 41
2011-07-07 06:26:05 51°13.809 2°55.648 -999 286 14.9 100700 41
2011-07-07 06:26:10 51°13.814 2°55.645 -999 37 14.9 100700 41
2011-07-07 06:26:15 51°13.818 2°55.642 -999 79 14.9 100700 41
2011-07-07 06:26:19 51°13.822 2°55.641 -999 35 14.9 100700 40
2011-07-07 06:26:25 51°13.828 2°55.638 -999 79 14.9 100700 40
2011-07-07 06:26:30 51°13.833 2°55.637 3.5 30 14.9 100700 41
2011-07-07 06:26:35 51°13.837 2°55.635 1.4 80 14.9 100700 41
2011-07-07 06:26:39 51°13.841 2°55.634 0.5 34 14.9 100700 41
2011-07-07 06:26:44 51°13.845 2°55.633 0.5 75 14.9 100700 41
2011-07-07 06:26:49 51°13.849 2°55.632 1.4 38 14.9 100700 40
2011-07-07 06:26:54 51°13.853 2°55.631 0.9 78 14.9 100700 40
2011-07-07 06:26:59 51°13.857 2°55.63 1.9 40 14.9 100700 42
2011-07-07 06:27:04 51°13.861 2°55.629 4.2 81 14.9 100700 42
2011-07-07 06:27:09 51°13.864 2°55.628 3.1 37 14.9 100700 40
2011-07-07 06:27:15 51°13.868 2°55.628 2.2 78 14.9 100700 40
2011-07-07 06:27:19 51°13.871 2°55.627 1.4 39 14.9 100700 41
2011-07-07 06:27:24 51°13.875 2°55.627 0.8 74 14.9 100700 41
2011-07-07 06:27:30 51°13.879 2°55.628 0.2 39 14.9 100700 40
2011-07-07 06:27:35 51°13.882 2°55.63 0.1 79 14.9 100700 40
2011-07-07 06:27:39 51°13.885 2°55.631 0.3 44 14.9 100700 41
2011-07-07 06:27:44 51°13.889 2°55.632 0.9 44 14.9 100700 41
2011-07-07 06:27:49 51°13.891 2°55.632 1.3 32 14.9 100700 41
2011-07-07 06:27:55 51°13.895 2°55.632 0.4 78 14.9 100700 41
2011-07-07 06:27:59 51°13.897 2°55.633 0.4 33 14.9 100700 40
2011-07-07 06:28:04 51°13.9 2°55.633 1.8 81 14.9 100700 40
2011-07-07 06:28:10 51°13.903 2°55.634 0.5 39 14.9 100700 40
2011-07-07 06:28:15 51°13.906 2°55.634 2 79 15 100700 41
2011-07-07 06:28:19 51°13.908 2°55.635 1.6 38 15 100700 42
2011-07-07 06:28:24 51°13.911 2°55.636 2.2 81 15 100700 42
2011-07-07 06:28:29 51°13.914 2°55.637 1.8 38 15 100700 41
2011-07-07 06:28:34 51°13.917 2°55.638 0.6 79 15 100700 41
2011-07-07 06:28:39 51°13.919 2°55.64 2 19 15 100700 41
2011-07-07 06:28:44 51°13.922 2°55.64 0.9 83 15 100700 41
2011-07-07 06:28:49 51°13.924 2°55.641 1.9 32 15 100700 40
2011-07-07 06:28:55 51°13.927 2°55.642 0.4 83 15 100700 40
2011-07-07 06:28:59 51°13.929 2°55.642 0.1 26 15.1 100700 40
2011-07-07 06:29:04 51°13.932 2°55.643 0.1 79 15.1 100700 40
2011-07-07 06:29:09 51°13.934 2°55.643 -999 35 15.1 100700 41
2011-07-07 06:29:15 51°13.937 2°55.644 0.3 78 15.1 100700 41
2011-07-07 06:29:19 51°13.938 2°55.644 0.6 24 15.1 100700 41
2011-07-07 06:29:24 51°13.94 2°55.644 0.5 83 15.1 100700 41
2011-07-07 06:29:29 51°13.942 2°55.644 0.2 33 15.1 100700 39
2011-07-07 06:29:35 51°13.945 2°55.645 0.1 79 15.1 100700 39
2011-07-07 06:29:39 51°13.946 2°55.645 1.4 38 15.1 100700 41
2011-07-07 06:29:44 51°13.948 2°55.646 1.3 81 15.1 100700 41
2011-07-07 06:29:50 51°13.949 2°55.646 1.6 31 15.1 100700 41
2011-07-07 06:29:55 51°13.95 2°55.646 0.5 78 15.1 100700 41
2011-07-07 06:29:59 51°13.951 2°55.646 0.1 35 15.1 100700 42
2011-07-07 06:30:04 51°13.952 2°55.647 0.1 84 15.1 100700 42
2011-07-07 06:30:10 51°13.953 2°55.647 0.3 34 15.1 100700 42
2011-07-07 06:30:15 51°13.953 2°55.647 3.2 82 15.1 100700 41
2011-07-07 06:30:19 51°13.953 2°55.647 3 38 15.2 100700 41
2011-07-07 06:30:25 51°13.953 2°55.647 4.8 75 15.2 100700 41
2011-07-07 06:30:30 51°13.953 2°55.647 4.9 36 15.2 100700 40
2011-07-07 06:30:35 51°13.953 2°55.647 4 80 15.2 100700 40
2011-07-07 06:30:39 51°13.952 2°55.646 3.3 38 15.1 100700 41
2011-07-07 06:30:44 51°13.952 2°55.646 3.7 81 15.1 100700 41
2011-07-07 06:30:49 51°13.951 2°55.646 4 32 15.1 100700 41
2011-07-07 06:30:55 51°13.95 2°55.646 4.1 82 15.1 100700 41
2011-07-07 06:30:59 51°13.949 2°55.646 3.6 37 15.1 100690 41
2011-07-07 06:31:05 51°13.948 2°55.646 4.1 80 15.1 100690 41
2011-07-07 06:31:10 51°13.947 2°55.646 3.9 32 15.1 100700 40
2011-07-07 06:31:15 51°13.946 2°55.646 3.3 80 15.1 100700 40
2011-07-07 06:31:20 51°13.944 2°55.646 2.9 32 15.1 100700 41
2011-07-07 06:31:26 51°13.943 2°55.646 3.3 76 15.1 100700 41
2011-07-07 06:31:31 51°13.942 2°55.646 2.2 37 15 100700 41
2011-07-07 06:31:37 51°13.941 2°55.646 3 76 15 100700 41
2011-07-07 06:31:43 51°13.94 2°55.646 2.1 39 15.1 100700 40
2011-07-07 06:31:47 51°13.94 2°55.646 0.7 79 15.1 100700 40
2011-07-07 06:31:52 51°13.939 2°55.646 0.6 36 15.1 100700 41
2011-07-07 06:31:57 51°13.938 2°55.646 0.1 79 15.1 100700 41
2011-07-07 06:32:02 51°13.937 2°55.646 0.1 41 15.1 100700 42
2011-07-07 06:32:07 51°13.937 2°55.646 -999 79 15.1 100700 42
2011-07-07 06:32:12 51°13.936 2°55.646 -999 36 15.1 100700 39
2011-07-07 06:32:17 51°13.935 2°55.647 -999 78 15.1 100700 39
2011-07-07 06:32:22 51°13.935 2°55.647 -999 36 15.1 100700 41
2011-07-07 06:32:27 51°13.934 2°55.647 -999 78 15.1 100700 41
2011-07-07 06:32:31 51°13.934 2°55.647 -999 36 15.1 100700 41
2011-07-07 06:32:36 51°13.933 2°55.647 -999 79 15.1 100700 41
2011-07-07 06:32:41 51°13.933 2°55.648 -999 36 15.2 100700 41
2011-07-07 06:32:46 51°13.933 2°55.647 -999 79 15.2 100700 41
2011-07-07 06:32:51 51°13.932 2°55.648 -999 36 15.2 100700 41
2011-07-07 06:32:55 51°13.932 2°55.647 -999 78 15.2 100700 41
2011-07-07 06:33:01 51°13.932 2°55.648 -999 36 15.2 100700 41
2011-07-07 06:33:06 51°13.932 2°55.648 -999 78 15.2 100700 41
2011-07-07 06:33:10 51°13.932 2°55.648 -999 36 15.2 100700 41
2011-07-07 06:33:15 51°13.931 2°55.648 -999 79 15.2 100700 41
2011-07-07 06:33:20 51°13.931 2°55.649 -999 36 15.2 100700 40
2011-07-07 06:33:25 51°13.931 2°55.649 -999 79 15.2 100700 40
2011-07-07 06:33:30 51°13.931 2°55.649 -999 36 15.2 100700 40
2011-07-07 06:33:35 51°13.931 2°55.649 -999 78 15.2 100700 40
2011-07-07 06:33:39 51°13.931 2°55.649 -999 36 15.2 100700 41
2011-07-07 06:33:44 51°13.93 2°55.65 -999 79 15.2 100700 41
2011-07-07 06:33:49 51°13.93 2°55.65 -999 36 15.2 100700 41
2011-07-07 06:33:55 51°13.93 2°55.649 -999 79 15.2 100700 41
2011-07-07 06:33:59 51°13.93 2°55.649 -999 36 15.2 100700 41
2011-07-07 06:34:04 51°13.93 2°55.649 -999 78 15.2 100700 41
2011-07-07 06:34:09 51°13.93 2°55.649 -999 36 15.2 100700 41
2011-07-07 06:34:15 51°13.931 2°55.649 -999 78 15.2 100700 41
2011-07-07 06:34:19 51°13.931 2°55.649 -999 36 15.2 100700 41
2011-07-07 06:34:24 51°13.932 2°55.649 -999 78 15.2 100700 41
2011-07-07 06:34:30 51°13.933 2°55.649 -999 36 15.2 100700 41
2011-07-07 06:34:35 51°13.934 2°55.649 -999 79 15.2 100700 41
2011-07-07 06:34:39 51°13.935 2°55.648 -999 36 15.2 100700 41
2011-07-07 06:34:44 51°13.937 2°55.647 -999 78 15.2 100700 41
2011-07-07 06:34:49 51°13.939 2°55.644 -999 36 15.2 100700 41
2011-07-07 06:34:55 51°13.943 2°55.641 -999 78 15.2 100700 39
2011-07-07 06:34:59 51°13.946 2°55.638 -999 36 15.2 100700 41
2011-07-07 06:35:04 51°13.95 2°55.634 -999 286 15.2 100700 41
2011-07-07 06:35:09 51°13.955 2°55.629 -999 270 15.2 100700 41
2011-07-07 06:35:15 51°13.963 2°55.621 -999 282 15.2 100700 41
2011-07-07 06:35:19 51°13.968 2°55.616 -999 261 15.2 100710 41
2011-07-07 06:35:24 51°13.976 2°55.608 -999 281 15.2 100710 41
2011-07-07 06:35:30 51°13.985 2°55.597 -999 254 15.2 100700 41
2011-07-07 06:35:35 51°13.994 2°55.588 -999 281 15.2 100700 41
2011-07-07 06:35:39 51°14.002 2°55.58 -999 247 15.2 100700 41
2011-07-07 06:35:44 51°14.011 2°55.57 -999 281 15.2 100700 41
2011-07-07 06:35:49 51°14.021 2°55.559 -999 265 15.2 100700 41
2011-07-07 06:35:55 51°14.033 2°55.545 -999 282 15.2 100700 41
2011-07-07 06:35:59 51°14.042 2°55.536 -999 244 15.2 100700 41
2011-07-07 06:36:04 51°14.052 2°55.524 -999 281 15.2 100700 41
2011-07-07 06:36:09 51°14.063 2°55.512 -999 260 15.2 100700 41
2011-07-07 06:36:15 51°14.076 2°55.497 -999 282 15.2 100700 41
2011-07-07 06:36:19 51°14.084 2°55.488 -999 235 15.2 100710 41
2011-07-07 06:36:24 51°14.095 2°55.476 -999 281 15.2 100710 41
2011-07-07 06:36:30 51°14.109 2°55.462 -999 243 15.2 100700 41
2011-07-07 06:36:35 51°14.12 2°55.45 -999 282 15.2 100700 41
2011-07-07 06:36:39 51°14.129 2°55.441 -999 36 15.2 100700 41
2011-07-07 06:36:45 51°14.142 2°55.427 -999 282 15.2 100700 41
2011-07-07 06:36:50 51°14.154 2°55.415 -999 242 15.2 100700 41
2011-07-07 06:36:55 51°14.165 2°55.403 -999 281 15.2 100700 41
2011-07-07 06:37:00 51°14.177 2°55.392 -999 36 15.2 100700 41
2011-07-07 06:37:05 51°14.188 2°55.38 -999 281 15.2 100700 41
2011-07-07 06:37:10 51°14.199 2°55.369 -999 315 15.2 100700 41
2011-07-07 06:37:15 51°14.211 2°55.358 -999 281 15.2 100700 41
2011-07-07 06:37:20 51°14.222 2°55.347 -999 316 15.2 100700 41
2011-07-07 06:37:25 51°14.233 2°55.335 -999 282 15.2 100700 41
2011-07-07 06:37:30 51°14.244 2°55.324 -999 322 15.2 100700 39
2011-07-07 06:37:35 51°14.256 2°55.313 -999 282 15.2 100700 39
2011-07-07 06:37:40 51°14.267 2°55.302 -999 237 15.2 100700 41
2011-07-07 06:37:45 51°14.278 2°55.291 -999 281 15.2 100700 41
2011-07-07 06:37:50 51°14.29 2°55.28 -999 251 15.2 100700 41
2011-07-07 06:37:55 51°14.301 2°55.268 -999 282 15.2 100700 41
2011-07-07 06:38:00 51°14.313 2°55.257 -999 237 15.2 100700 41
2011-07-07 06:38:05 51°14.325 2°55.245 -999 282 15.2 100700 41
2011-07-07 06:38:10 51°14.337 2°55.233 -999 239 15.2 100710 40
2011-07-07 06:38:15 51°14.348 2°55.221 -999 281 15.2 100710 40
2011-07-07 06:38:19 51°14.358 2°55.212 -999 242 15.2 100700 40
2011-07-07 06:38:25 51°14.373 2°55.198 -999 281 15.2 100700 40
2011-07-07 06:38:30 51°14.385 2°55.186 -999 236 15.2 100710 40
2011-07-07 06:38:35 51°14.397 2°55.174 -999 281 15.2 100710 40
2011-07-07 06:38:39 51°14.406 2°55.164 -999 317 15.2 100710 40
2011-07-07 06:38:44 51°14.419 2°55.152 -999 282 15.2 100710 40
2011-07-07 06:38:50 51°14.434 2°55.137 -999 35 15.2 100710 40
2011-07-07 06:38:54 51°14.444 2°55.128 -999 282 15.2 100710 40
2011-07-07 06:38:59 51°14.456 2°55.115 -999 36 15.2 100700 40
2011-07-07 06:39:04 51°14.469 2°55.102 -999 282 15.2 100700 40
2011-07-07 06:39:09 51°14.481 2°55.089 -999 236 15.2 100700 40
2011-07-07 06:39:15 51°14.496 2°55.073 -999 281 15.2 100710 40
2011-07-07 06:39:19 51°14.506 2°55.063 -999 245 15.2 100700 41
2011-07-07 06:39:24 51°14.519 2°55.05 -999 282 15.2 100700 41
2011-07-07 06:39:30 51°14.535 2°55.035 -999 242 15.2 100700 41
2011-07-07 06:39:35 51°14.548 2°55.022 -999 282 15.2 100700 41
2011-07-07 06:39:39 51°14.558 2°55.011 -999 235 15.2 100700 41
2011-07-07 06:39:44 51°14.572 2°54.999 -999 -999 15.2 100700 41
2011-07-07 06:39:49 51°14.585 2°54.986 -999 237 15.2 100700 41
2011-07-07 06:39:55 51°14.601 2°54.97 -999 281 15.2 100700 41
2011-07-07 06:39:59 51°14.611 2°54.959 -999 24 15.2 100700 41
2011-07-07 06:40:04 51°14.624 2°54.946 -999 282 15.2 100700 41
2011-07-07 06:40:10 51°14.64 2°54.93 -999 244 15.2 100700 39
2011-07-07 06:40:15 51°14.653 2°54.917 -999 281 15.2 100700 39
2011-07-07 06:40:19 51°14.664 2°54.906 -999 244 15.2 100710 41
2011-07-07 06:40:24 51°14.677 2°54.893 -999 282 15.2 100710 41
2011-07-07 06:40:29 51°14.69 2°54.879 -999 243 15.2 100700 41
2011-07-07 06:40:35 51°14.706 2°54.862 -999 281 15.2 100700 41
2011-07-07 06:40:39 51°14.717 2°54.851 -999 244 15.2 100700 41
2011-07-07 06:40:44 51°14.73 2°54.837 -999 282 15.2 100700 41
2011-07-07 06:40:49 51°14.743 2°54.823 -999 244 15.2 100700 41
2011-07-07 06:40:55 51°14.76 2°54.807 -999 282 15.2 100700 41
2011-07-07 06:40:59 51°14.771 2°54.795 -999 242 15.2 100700 41
2011-07-07 06:41:04 51°14.785 2°54.78 -999 282 15.2 100700 41
2011-07-07 06:41:10 51°14.802 2°54.762 -999 243 15.2 100700 41
2011-07-07 06:41:15 51°14.816 2°54.747 -999 281 15.2 100710 40
2011-07-07 06:41:19 51°14.827 2°54.735 -999 238 15.2 100710 41
2011-07-07 06:41:24 51°14.841 2°54.72 -999 282 15.2 100710 41
2011-07-07 06:41:29 51°14.854 2°54.704 -999 235 15.2 100710 41
2011-07-07 06:41:35 51°14.871 2°54.685 -999 281 15.2 100710 40
2011-07-07 06:41:39 51°14.882 2°54.672 -999 242 15.2 100710 41
2011-07-07 06:41:44 51°14.897 2°54.657 -999 -999 15.2 100710 41
2011-07-07 06:41:49 51°14.911 2°54.642 -999 235 15.2 100710 41
2011-07-07 06:41:55 51°14.93 2°54.625 -999 281 15.2 100710 41
2011-07-07 06:41:59 51°14.942 2°54.614 -999 237 15.2 100710 41
2011-07-07 06:42:04 51°14.958 2°54.602 -999 281 15.2 100710 41
2011-07-07 06:42:09 51°14.974 2°54.589 -999 241 15.2 100710 41
2011-07-07 06:42:15 51°14.994 2°54.575 -999 281 15.2 100710 41
2011-07-07 06:42:19 51°15.007 2°54.566 -999 246 15.3 100710 41
2011-07-07 06:42:24 51°15.024 2°54.556 -999 282 15.3 100710 41
2011-07-07 06:42:29 51°15.042 2°54.546 -999 249 15.3 100710 41
2011-07-07 06:42:35 51°15.063 2°54.536 0.1 277 15.3 100710 41
2011-07-07 06:42:39 51°15.077 2°54.53 0.1 251 15.3 100710 41
2011-07-07 06:42:44 51°15.095 2°54.524 0.1 281 15.3 100710 41
2011-07-07 06:42:49 51°15.113 2°54.519 -999 238 15.2 100710 39
2011-07-07 06:42:55 51°15.135 2°54.515 -999 282 15.2 100710 39
2011-07-07 06:42:59 51°15.15 2°54.512 -999 249 15.3 100710 41
2011-07-07 06:43:04 51°15.168 2°54.51 -999 282 15.3 100710 41
2011-07-07 06:43:09 51°15.186 2°54.507 -999 241 15.3 100710 41
2011-07-07 06:43:15 51°15.209 2°54.505 -999 281 15.3 100710 41
2011-07-07 06:43:19 51°15.224 2°54.504 -999 237 15.3 100710 41
2011-07-07 06:43:24 51°15.242 2°54.503 -999 282 15.3 100710 41
2011-07-07 06:43:30 51°15.264 2°54.501 -999 246 15.3 100710 41
2011-07-07 06:43:35 51°15.283 2°54.5 1.9 283 15.3 100710 41
2011-07-07 06:43:39 51°15.298 2°54.499 3.9 249 15.3 100710 41
2011-07-07 06:43:44 51°15.317 2°54.497 2.9 -999 15.3 100710 41
2011-07-07 06:43:49 51°15.335 2°54.494 1.9 244 15.3 100710 41
2011-07-07 06:43:55 51°15.357 2°54.492 1.8 278 15.3 100710 42
2011-07-07 06:43:59 51°15.372 2°54.489 2.3 251 15.4 100700 42
2011-07-07 06:44:04 51°15.391 2°54.488 0.7 285 15.4 100700 42
2011-07-07 06:44:10 51°15.413 2°54.484 0.1 244 15.4 100700 42
2011-07-07 06:44:15 51°15.431 2°54.482 0.1 281 15.3 100700 41
2011-07-07 06:44:19 51°15.445 2°54.48 -999 257 15.3 100700 40
2011-07-07 06:44:24 51°15.464 2°54.477 1.2 284 15.3 100700 40
2011-07-07 06:44:29 51°15.482 2°54.474 1.8 258 15.3 100710 41
2011-07-07 06:44:35 51°15.504 2°54.471 0.9 285 15.3 100710 41
2011-07-07 06:44:39 51°15.519 2°54.469 1.2 261 15.3 100710 41
2011-07-07 06:44:44 51°15.537 2°54.467 3.5 -999 15.3 100710 41
2011-07-07 06:44:49 51°15.556 2°54.465 1.6 262 15.3 100700 41
2011-07-07 06:44:55 51°15.578 2°54.464 1.9 5 15.3 100700 41
2011-07-07 06:44:59 51°15.593 2°54.465 1 269 15.3 100700 41
2011-07-07 06:45:04 51°15.611 2°54.466 1.2 77 15.3 100700 41
2011-07-07 06:45:10 51°15.633 2°54.471 0.2 33 15.3 100700 41
2011-07-07 06:45:15 51°15.652 2°54.476 0.1 79 15.3 100700 41
2011-07-07 06:45:19 51°15.666 2°54.481 0.1 36 15.3 100710 40
2011-07-07 06:45:24 51°15.684 2°54.488 -999 12 15.3 100710 40
2011-07-07 06:45:29 51°15.702 2°54.497 0.4 19 15.3 100710 39
2011-07-07 06:45:35 51°15.723 2°54.509 0.1 21 15.3 100710 39
2011-07-07 06:45:39 51°15.737 2°54.518 0.1 36 15.3 100710 41
2011-07-07 06:45:44 51°15.753 2°54.53 0.1 -999 15.3 100710 41
2011-07-07 06:45:49 51°15.77 2°54.544 0.1 28 15.3 100710 41
2011-07-07 06:45:55 51°15.789 2°54.561 0.3 25 15.3 100710 41
2011-07-07 06:45:59 51°15.802 2°54.573 1.4 21 15.3 100710 41
2011-07-07 06:46:04 51°15.818 2°54.589 1.8 3 15.3 100710 41
2011-07-07 06:46:09 51°15.834 2°54.605 3.3 16 15.3 100710 40
2011-07-07 06:46:15 51°15.852 2°54.625 2.8 17 15.3 100710 40
2011-07-07 06:46:19 51°15.864 2°54.639 2.8 11 15.3 100710 41
2011-07-07 06:46:24 51°15.879 2°54.657 3.3 9 15.3 100710 41
2011-07-07 06:46:29 51°15.893 2°54.676 4.1 13 15.4 100710 41
2011-07-07 06:46:35 51°15.909 2°54.699 4.6 7 15.4 100710 41
2011-07-07 06:46:39 51°15.92 2°54.716 4.3 14 15.4 100700 40
2011-07-07 06:46:44 51°15.933 2°54.736 6.3 -999 15.4 100700 40
2011-07-07 06:46:49 51°15.946 2°54.757 6.7 11 15.4 100700 41
2011-07-07 06:46:55 51°15.962 2°54.783 4.9 12 15.4 100700 41
2011-07-07 06:46:59 51°15.972 2°54.8 5.2 16 15.4 100700 42
2011-07-07 06:47:04 51°15.984 2°54.822 6.6 10 15.4 100700 42
2011-07-07 06:47:09 51°15.997 2°54.844 7.7 18 15.4 100700 41
2011-07-07 06:47:15 51°16.011 2°54.871 5.2 18 15.4 100700 41
2011-07-07 06:47:19 51°16.021 2°54.889 5.9 18 15.4 100700 41
2011-07-07 06:47:25 51°16.035 2°54.917 5.1 17 15.4 100710 42
2011-07-07 06:47:30 51°16.047 2°54.939 4.9 14 15.4 100710 42
2011-07-07 06:47:34 51°16.056 2°54.958 5.2 21 15.4 100700 42
2011-07-07 06:47:39 51°16.068 2°54.981 5.7 21 15.4 100700 42
2011-07-07 06:47:44 51°16.08 2°55.005 4.4 17 15.4 100710 41
2011-07-07 06:47:50 51°16.094 2°55.033 4.8 8 15.3 100710 41
2011-07-07 06:47:55 51°16.105 2°55.056 4.1 5 15.3 100710 41
2011-07-07 06:47:59 51°16.114 2°55.075 4.2 6 15.3 100710 41
2011-07-07 06:48:04 51°16.126 2°55.098 4.2 5 15.3 100710 41
2011-07-07 06:48:10 51°16.14 2°55.126 4.3 8 15.3 100710 41
2011-07-07 06:48:15 51°16.152 2°55.148 3.6 1 15.3 100700 40
2011-07-07 06:48:19 51°16.162 2°55.166 3.9 8 15.3 100700 40
2011-07-07 06:48:24 51°16.175 2°55.189 4.1 12 15.3 100700 42
2011-07-07 06:48:29 51°16.188 2°55.211 4.4 12 15.3 100700 42
2011-07-07 06:48:34 51°16.2 2°55.233 3.1 6 15.3 100710 41
2011-07-07 06:48:39 51°16.213 2°55.255 5.9 7 15.3 100700 41
2011-07-07 06:48:43 51°16.223 2°55.272 4.6 6 15.3 100700 41
2011-07-07 06:48:49 51°16.238 2°55.299 5.3 7 15.3 100700 41
2011-07-07 06:48:54 51°16.251 2°55.32 6.7 8 15.3 100700 40
2011-07-07 06:48:59 51°16.264 2°55.342 5 16 15.3 100710 41
2011-07-07 06:49:04 51°16.277 2°55.363 6 11 15.3 100710 41
2011-07-07 06:49:09 51°16.29 2°55.386 3.9 8 15.3 100710 41
2011-07-07 06:49:15 51°16.305 2°55.412 5.8 8 15.3 100700 40
2011-07-07 06:49:19 51°16.314 2°55.43 6.1 13 15.3 100700 40
2011-07-07 06:49:24 51°16.326 2°55.453 7.3 11 15.3 100710 41
2011-07-07 06:49:30 51°16.34 2°55.481 6.2 8 15.3 100710 41
2011-07-07 06:49:34 51°16.35 2°55.5 6.4 10 15.3 100700 42
2011-07-07 06:49:39 51°16.359 2°55.524 7 13 15.3 100700 42
2011-07-07 06:49:43 51°16.369 2°55.543 6.7 7 15.3 100700 41
2011-07-07 06:49:50 51°16.385 2°55.576 4.4 7 15.3 100700 41
2011-07-07 06:49:54 51°16.394 2°55.595 4.7 14 15.3 100700 42
2011-07-07 06:49:59 51°16.405 2°55.618 5.5 11 15.3 100700 42
2011-07-07 06:50:04 51°16.416 2°55.642 6.8 11 15.3 100700 40
2011-07-07 06:50:10 51°16.429 2°55.671 5.7 13 15.3 100700 40
2011-07-07 06:50:15 51°16.44 2°55.695 5.9 14 15.3 100700 41
2011-07-07 06:50:19 51°16.449 2°55.713 4.6 17 15.3 100700 41
2011-07-07 06:50:24 51°16.46 2°55.737 4.4 18 15.3 100700 42
2011-07-07 06:50:30 51°16.474 2°55.765 4.7 19 15.3 100700 42
2011-07-07 06:50:35 51°16.486 2°55.787 4.3 16 15.2 100700 41
2011-07-07 06:50:39 51°16.496 2°55.805 3.9 15 15.2 100700 41
2011-07-07 06:50:44 51°16.508 2°55.827 3.8 19 15.2 100710 41
2011-07-07 06:50:50 51°16.523 2°55.854 3.2 8 15.2 100710 41
2011-07-07 06:50:55 51°16.536 2°55.875 4.3 1 15.2 100700 38
2011-07-07 06:50:59 51°16.546 2°55.893 4 9 15.2 100700 38
2011-07-07 06:51:04 51°16.558 2°55.914 5.1 15 15.2 100710 41
2011-07-07 06:51:09 51°16.571 2°55.936 3.3 15 15.2 100710 41
2011-07-07 06:51:14 51°16.583 2°55.959 4.7 10 15.2 100700 41
2011-07-07 06:51:19 51°16.595 2°55.982 4.6 9 15.2 100700 41
2011-07-07 06:51:24 51°16.606 2°56.005 5 9 15.2 100700 41
2011-07-07 06:51:30 51°16.62 2°56.033 4.9 7 15.2 100700 42
2011-07-07 06:51:35 51°16.631 2°56.057 6.7 9 15.2 100700 42
2011-07-07 06:51:39 51°16.641 2°56.075 6.2 10 15.2 100700 42
2011-07-07 06:51:44 51°16.652 2°56.099 6.9 10 15.2 100700 41
2011-07-07 06:51:49 51°16.663 2°56.123 6.4 12 15.2 100700 41
2011-07-07 06:51:55 51°16.676 2°56.151 6 11 15.2 100700 42
2011-07-07 06:51:59 51°16.685 2°56.171 5.4 13 15.2 100700 42
2011-07-07 06:52:04 51°16.696 2°56.194 4.6 14 15.3 100700 42
2011-07-07 06:52:10 51°16.71 2°56.223 4.8 8 15.3 100700 42
2011-07-07 06:52:14 51°16.719 2°56.241 5.7 12 15.2 100700 41
2011-07-07 06:52:19 51°16.73 2°56.265 5.6 13 15.2 100700 41
2011-07-07 06:52:23 51°16.74 2°56.284 5.2 13 15.2 100700 41
2011-07-07 06:52:30 51°16.756 2°56.316 4.8 12 15.2 100700 41
2011-07-07 06:52:34 51°16.766 2°56.334 3.8 17 15.2 100700 42
2011-07-07 06:52:39 51°16.778 2°56.357 6.7 19 15.2 100700 42
2011-07-07 06:52:44 51°16.79 2°56.379 5 22 15.3 100700 41
2011-07-07 06:52:49 51°16.803 2°56.401 4.6 20 15.3 100700 41
2011-07-07 06:52:55 51°16.818 2°56.427 4.7 22 15.3 100700 42
2011-07-07 06:52:59 51°16.829 2°56.444 4.5 17 15.3 100700 42
2011-07-07 06:53:04 51°16.841 2°56.466 3.5 18 15.3 100700 42
2011-07-07 06:53:09 51°16.854 2°56.487 3.5 14 15.3 100700 42
2011-07-07 06:53:14 51°16.867 2°56.509 3.9 18 15.3 100710 41
2011-07-07 06:53:19 51°16.88 2°56.531 4.5 26 15.3 100700 42
2011-07-07 06:53:24 51°16.892 2°56.554 4.8 21 15.3 100700 42
2011-07-07 06:53:30 51°16.907 2°56.581 4.5 18 15.3 100700 42
2011-07-07 06:53:34 51°16.916 2°56.599 5.4 17 15.2 100700 39
2011-07-07 06:53:39 51°16.928 2°56.623 5.3 18 15.2 100700 39
2011-07-07 06:53:44 51°16.939 2°56.646 5.1 19 15.3 100710 42
2011-07-07 06:53:49 51°16.951 2°56.669 4.9 18 15.3 100710 42
2011-07-07 06:53:54 51°16.962 2°56.693 4.8 17 15.3 100700 42
2011-07-07 06:53:59 51°16.974 2°56.716 5.1 19 15.3 100700 42
2011-07-07 06:54:04 51°16.985 2°56.74 4 19 15.3 100710 41
2011-07-07 06:54:10 51°16.998 2°56.769 4 16 15.3 100710 41
2011-07-07 06:54:14 51°17.007 2°56.788 4.4 19 15.3 100700 42
2011-07-07 06:54:19 51°17.018 2°56.812 4.6 12 15.3 100700 42
2011-07-07 06:54:24 51°17.03 2°56.836 4.6 16 15.3 100700 42
2011-07-07 06:54:29 51°17.041 2°56.859 4.7 16 15.3 100710 41
2011-07-07 06:54:35 51°17.055 2°56.887 5.1 17 15.3 100710 41
2011-07-07 06:54:39 51°17.065 2°56.905 5.2 17 15.3 100710 41
2011-07-07 06:54:44 51°17.077 2°56.928 4.9 18 15.3 100700 41
2011-07-07 06:54:49 51°17.089 2°56.95 4.2 16 15.3 100700 41
2011-07-07 06:54:55 51°17.104 2°56.976 4.9 15 15.3 100710 41
2011-07-07 06:54:59 51°17.115 2°56.994 4.9 19 15.3 100710 41
2011-07-07 06:55:03 51°17.125 2°57.011 4.7 19 15.3 100710 41
2011-07-07 06:55:09 51°17.14 2°57.037 5.1 22 15.3 100710 41
2011-07-07 06:55:14 51°17.153 2°57.059 4.6 16 15.3 100710 41
2011-07-07 06:55:19 51°17.166 2°57.081 4.4 14 15.3 100710 42
2011-07-07 06:55:24 51°17.178 2°57.103 5.1 19 15.3 100710 42
2011-07-07 06:55:29 51°17.191 2°57.125 4.8 21 15.3 100710 42
2011-07-07 06:55:34 51°17.203 2°57.148 5.5 21 15.3 100710 42
2011-07-07 06:55:39 51°17.214 2°57.172 4.8 20 15.3 100710 42
2011-07-07 06:55:44 51°17.226 2°57.195 4.8 18 15.3 100710 42
2011-07-07 06:55:50 51°17.239 2°57.224 5.3 16 15.3 100710 42
2011-07-07 06:55:55 51°17.25 2°57.247 4.1 16 15.3 100710 42
2011-07-07 06:55:59 51°17.259 2°57.267 4.6 12 15.3 100710 42
2011-07-07 06:56:04 51°17.27 2°57.291 4.3 8 15.3 100710 41
2011-07-07 06:56:10 51°17.284 2°57.32 5.3 13 15.3 100710 41
2011-07-07 06:56:14 51°17.292 2°57.339 4.9 15 15.3 100710 39
2011-07-07 06:56:19 51°17.304 2°57.363 4.6 16 15.3 100710 39
2011-07-07 06:56:24 51°17.315 2°57.387 4.5 16 15.3 100710 42
2011-07-07 06:56:30 51°17.328 2°57.416 4.5 13 15.3 100710 42
2011-07-07 06:56:34 51°17.337 2°57.435 5.2 9 15.3 100710 41
2011-07-07 06:56:39 51°17.348 2°57.459 5.5 18 15.3 100710 41
2011-07-07 06:56:44 51°17.36 2°57.482 5.1 19 15.3 100710 43
2011-07-07 06:56:50 51°17.373 2°57.511 5.2 21 15.4 100710 42
2011-07-07 06:56:55 51°17.385 2°57.534 4.7 20 15.4 100710 42
2011-07-07 06:56:59 51°17.394 2°57.553 4.5 20 15.4 100710 42
2011-07-07 06:57:04 51°17.406 2°57.576 3.4 21 15.4 100710 41
2011-07-07 06:57:09 51°17.419 2°57.598 4.3 23 15.4 100710 41
2011-07-07 06:57:15 51°17.433 2°57.625 4.7 20 15.3 100710 41
2011-07-07 06:57:19 51°17.444 2°57.642 4.8 19 15.3 100710 41
2011-07-07 06:57:24 51°17.456 2°57.664 5.6 21 15.3 100710 41
2011-07-07 06:57:29 51°17.469 2°57.687 5.8 24 15.3 100710 41
2011-07-07 06:57:35 51°17.484 2°57.713 4.9 25 15.3 100710 42
2011-07-07 06:57:39 51°17.493 2°57.731 4 26 15.3 100710 42
2011-07-07 06:57:43 51°17.503 2°57.749 4.2 26 15.4 100710 42
2011-07-07 06:57:49 51°17.517 2°57.776 3.7 24 15.4 100710 42
2011-07-07 06:57:54 51°17.529 2°57.798 4.1 17 15.4 100710 41
2011-07-07 06:57:59 51°17.54 2°57.822 4.8 15 15.3 100710 40
2011-07-07 06:58:04 51°17.551 2°57.845 5 19 15.3 100710 40
2011-07-07 06:58:09 51°17.562 2°57.869 5.6 18 15.3 100710 40
2011-07-07 06:58:15 51°17.576 2°57.897 5.3 17 15.3 100710 40
2011-07-07 06:58:19 51°17.585 2°57.916 4.7 16 15.3 100710 41
2011-07-07 06:58:23 51°17.594 2°57.935 3.7 22 15.3 100710 41
2011-07-07 06:58:30 51°17.61 2°57.967 3.8 15 15.3 100710 41
2011-07-07 06:58:34 51°17.619 2°57.985 4 17 15.4 100710 41
2011-07-07 06:58:39 51°17.631 2°58.008 2.1 19 15.4 100710 41
2011-07-07 06:58:44 51°17.644 2°58.03 2.8 18 15.4 100710 41
2011-07-07 06:58:49 51°17.655 2°58.053 2.6 18 15.4 100710 40
2011-07-07 06:58:55 51°17.67 2°58.079 2.8 23 15.4 100710 40
2011-07-07 06:58:59 51°17.68 2°58.097 0.3 17 15.4 100710 40
2011-07-07 06:59:04 51°17.693 2°58.119 0.1 24 15.4 100710 41
2011-07-07 06:59:10 51°17.708 2°58.145 3.1 23 15.4 100710 41
2011-07-07 06:59:15 51°17.721 2°58.165 0.2 19 15.4 100710 41
2011-07-07 06:59:19 51°17.732 2°58.182 4 19 15.4 100710 41
2011-07-07 06:59:24 51°17.745 2°58.203 3.2 21 15.4 100710 41
2011-07-07 06:59:30 51°17.76 2°58.229 4.3 17 15.4 100710 41
2011-07-07 06:59:35 51°17.774 2°58.25 3.5 19 15.4 100710 41
2011-07-07 06:59:39 51°17.783 2°58.267 3.6 18 15.4 100710 41
2011-07-07 06:59:44 51°17.796 2°58.289 4.5 11 15.4 100710 41
2011-07-07 06:59:49 51°17.809 2°58.31 4 15 15.4 100710 41
2011-07-07 06:59:54 51°17.821 2°58.333 4.9 9 15.4 100710 41
2011-07-07 06:59:59 51°17.833 2°58.355 5.2 11 15.4 100710 41
2011-07-07 07:00:04 51°17.844 2°58.378 5.2 10 15.4 100710 41
2011-07-07 07:00:10 51°17.858 2°58.406 6.3 11 15.4 100710 41
2011-07-07 07:00:15 51°17.869 2°58.43 6 15 15.5 100710 42
2011-07-07 07:00:19 51°17.878 2°58.449 5.8 15 15.5 100710 41
2011-07-07 07:00:24 51°17.889 2°58.473 5.1 10 15.5 100710 41
2011-07-07 07:00:29 51°17.899 2°58.497 5.6 14 15.5 100700 42
2011-07-07 07:00:35 51°17.912 2°58.526 5.2 13 15.5 100700 42
2011-07-07 07:00:39 51°17.921 2°58.545 6.8 14 15.5 100700 42
2011-07-07 07:00:44 51°17.932 2°58.569 4.4 10 15.5 100710 41
2011-07-07 07:00:50 51°17.945 2°58.597 4.7 19 15.5 100710 41
2011-07-07 07:00:54 51°17.955 2°58.615 4.2 19 15.6 100710 42
2011-07-07 07:00:59 51°17.967 2°58.637 4.5 20 15.6 100710 42
2011-07-07 07:01:04 51°17.979 2°58.659 3.7 21 15.6 100710 42
2011-07-07 07:01:09 51°17.991 2°58.681 2.7 20 15.6 100710 42
2011-07-07 07:01:14 51°18.004 2°58.703 2.9 18 15.6 100700 42
2011-07-07 07:01:19 51°18.017 2°58.725 3 12 15.6 100700 42
2011-07-07 07:01:24 51°18.03 2°58.745 4.3 9 15.6 100710 41
2011-07-07 07:01:30 51°18.045 2°58.772 4.5 13 15.6 100710 41
2011-07-07 07:01:34 51°18.056 2°58.788 4.4 22 15.5 100710 40
2011-07-07 07:01:39 51°18.069 2°58.81 4.2 26 15.5 100710 40
2011-07-07 07:01:44 51°18.082 2°58.831 3.4 25 15.5 100710 41
2011-07-07 07:01:49 51°18.094 2°58.853 4.2 17 15.5 100710 41
2011-07-07 07:01:55 51°18.11 2°58.879 4.4 12 15.6 100710 42
2011-07-07 07:01:59 51°18.12 2°58.896 3.1 19 15.6 100710 42
2011-07-07 07:02:04 51°18.132 2°58.918 3.8 21 15.6 100710 41
2011-07-07 07:02:09 51°18.145 2°58.94 4 22 15.6 100710 41
2011-07-07 07:02:14 51°18.158 2°58.961 4.1 20 15.6 100710 42
2011-07-07 07:02:19 51°18.17 2°58.983 4.6 18 15.6 100710 42
2011-07-07 07:02:24 51°18.183 2°59.004 3.9 16 15.6 100710 42
2011-07-07 07:02:30 51°18.198 2°59.03 4.1 15 15.6 100710 42
2011-07-07 07:02:34 51°18.208 2°59.047 4.8 8 15.6 100710 42
2011-07-07 07:02:39 51°18.221 2°59.069 5.2 15 15.6 100710 42
2011-07-07 07:02:44 51°18.234 2°59.091 4.3 18 15.6 100710 42
2011-07-07 07:02:49 51°18.246 2°59.113 5.1 17 15.6 100710 42
2011-07-07 07:02:55 51°18.259 2°59.141 4.8 14 15.6 100710 42
2011-07-07 07:02:59 51°18.268 2°59.16 5.2 15 15.6 100710 42
2011-07-07 07:03:04 51°18.28 2°59.183 5.1 14 15.7 100710 41
2011-07-07 07:03:10 51°18.293 2°59.211 3.9 11 15.6 100710 41
2011-07-07 07:03:15 51°18.304 2°59.235 5 12 15.6 100710 41
2011-07-07 07:03:19 51°18.312 2°59.254 4.3 9 15.6 100710 41
2011-07-07 07:03:24 51°18.323 2°59.278 4.6 17 15.6 100710 40
2011-07-07 07:03:29 51°18.333 2°59.302 6.2 12 15.6 100710 42
2011-07-07 07:03:35 51°18.347 2°59.33 5.3 17 15.6 100710 42
2011-07-07 07:03:39 51°18.355 2°59.349 6 17 15.6 100710 42
2011-07-07 07:03:44 51°18.366 2°59.373 5.2 15 15.7 100710 41
2011-07-07 07:03:50 51°18.379 2°59.401 5.6 10 15.7 100710 41
2011-07-07 07:03:55 51°18.39 2°59.425 4.9 13 15.7 100710 42
2011-07-07 07:03:59 51°18.399 2°59.443 5.5 14 15.7 100710 42
2011-07-07 07:04:04 51°18.41 2°59.467 4.7 10 15.7 100700 42
2011-07-07 07:04:09 51°18.421 2°59.49 4 13 15.7 100700 42
2011-07-07 07:04:15 51°18.435 2°59.517 4.2 18 15.7 100710 40
2011-07-07 07:04:19 51°18.445 2°59.535 3.7 17 15.7 100710 40
2011-07-07 07:04:24 51°18.457 2°59.557 3.6 15 15.7 100710 41
2011-07-07 07:04:29 51°18.469 2°59.579 3.5 15 15.7 100710 41
2011-07-07 07:04:34 51°18.482 2°59.6 3.5 17 15.7 100710 41
2011-07-07 07:04:39 51°18.494 2°59.622 3.3 14 15.7 100710 42
2011-07-07 07:04:44 51°18.507 2°59.643 3.3 14 15.7 100710 42
2011-07-07 07:04:50 51°18.523 2°59.668 3 8 15.7 100710 42
2011-07-07 07:04:55 51°18.535 2°59.69 2.8 17 15.7 100710 42
2011-07-07 07:04:59 51°18.545 2°59.707 4.2 15 15.7 100720 41
2011-07-07 07:05:04 51°18.558 2°59.729 4.9 10 15.7 100720 41
2011-07-07 07:05:09 51°18.57 2°59.751 5.4 11 15.7 100720 41
2011-07-07 07:05:14 51°18.581 2°59.774 6.7 11 15.7 100710 42
2011-07-07 07:05:19 51°18.592 2°59.798 4.9 18 15.7 100710 42
2011-07-07 07:05:24 51°18.604 2°59.821 4.4 23 15.8 100710 41
2011-07-07 07:05:30 51°18.617 2°59.849 4.8 20 15.8 100710 41
2011-07-07 07:05:34 51°18.626 2°59.868 3.9 15 15.7 100710 42
2011-07-07 07:05:39 51°18.637 2°59.892 4.7 16 15.7 100710 42
2011-07-07 07:05:44 51°18.648 2°59.916 4.2 12 15.7 100710 40
2011-07-07 07:05:50 51°18.661 2°59.945 4 13 15.7 100710 40
2011-07-07 07:05:55 51°18.672 2°59.969 4.8 18 15.7 100710 41
2011-07-07 07:05:59 51°18.681 2°59.988 3.8 16 15.7 100710 41
2011-07-07 07:06:04 51°18.691 3°0.012 4.8 16 15.8 100710 42
2011-07-07 07:06:09 51°18.703 3°0.036 4.2 20 15.8 100710 42
2011-07-07 07:06:14 51°18.714 3°0.059 2.8 23 15.8 100710 41
2011-07-07 07:06:19 51°18.727 3°0.079 1.2 27 15.8 100710 41
2011-07-07 07:06:24 51°18.741 3°0.097 2.8 40 15.8 100710 41
2011-07-07 07:06:29 51°18.756 3°0.111 1.5 33 15.8 100710 41
2011-07-07 07:06:34 51°18.773 3°0.123 0.3 82 15.8 100710 41
2011-07-07 07:06:39 51°18.789 3°0.131 0.2 34 15.8 100710 41
2011-07-07 07:06:43 51°18.803 3°0.135 1.6 281 15.8 100710 41
2011-07-07 07:06:49 51°18.824 3°0.137 3.5 248 15.8 100710 41
2011-07-07 07:06:54 51°18.841 3°0.136 3.1 279 15.8 100710 40
2011-07-07 07:06:59 51°18.858 3°0.131 3.1 260 15.8 100710 40
2011-07-07 07:07:04 51°18.874 3°0.124 6.1 278 15.8 100710 40
2011-07-07 07:07:10 51°18.892 3°0.111 6.7 257 15.8 100710 40
2011-07-07 07:07:14 51°18.903 3°0.1 7.7 284 15.8 100710 41
2011-07-07 07:07:19 51°18.917 3°0.084 6.9 245 15.8 100710 41
2011-07-07 07:07:24 51°18.928 3°0.065 7.7 283 15.9 100710 42
2011-07-07 07:07:29 51°18.938 3°0.045 8.8 243 15.9 100700 42
2011-07-07 07:07:35 51°18.948 3°0.019 8.7 285 15.9 100700 42
2011-07-07 07:07:39 51°18.952 3°0 9.6 236 15.9 100700 42
2011-07-07 07:07:44 51°18.957 2°59.976 10.7 23 15.9 100700 41
2011-07-07 07:07:49 51°18.959 2°59.952 10.1 38 15.9 100690 42
2011-07-07 07:07:55 51°18.96 2°59.922 10.4 281 15.9 100690 42
2011-07-07 07:07:59 51°18.959 2°59.903 12.2 37 15.9 100690 42
2011-07-07 07:08:04 51°18.955 2°59.88 11.4 276 15.9 100690 42
2011-07-07 07:08:10 51°18.949 2°59.853 10.6 317 15.9 100690 42
2011-07-07 07:08:14 51°18.943 2°59.837 11.1 281 15.9 100680 41
2011-07-07 07:08:19 51°18.935 2°59.817 6.3 322 15.9 100680 41
2011-07-07 07:08:24 51°18.925 2°59.8 14.3 280 15.9 100680 41
2011-07-07 07:08:29 51°18.914 2°59.783 14 321 15.9 100680 41
2011-07-07 07:08:35 51°18.901 2°59.763 13.3 285 15.9 100670 41
2011-07-07 07:08:39 51°18.892 2°59.749 15.1 320 16 100670 42
2011-07-07 07:08:43 51°18.883 2°59.735 11.5 282 16 100670 42
2011-07-07 07:08:49 51°18.87 2°59.712 11.8 318 16 100670 42
2011-07-07 07:08:54 51°18.86 2°59.692 5.9 278 16 100680 41
2011-07-07 07:08:59 51°18.85 2°59.672 11.3 319 15.9 100670 40
2011-07-07 07:09:04 51°18.841 2°59.65 11.5 278 15.9 100670 40
2011-07-07 07:09:09 51°18.832 2°59.629 5.8 320 15.9 100670 40
2011-07-07 07:09:14 51°18.824 2°59.607 11.2 280 15.9 100670 39
2011-07-07 07:09:19 51°18.815 2°59.584 11.9 318 15.9 100670 39
2011-07-07 07:09:24 51°18.807 2°59.561 11.8 280 15.9 100670 40
2011-07-07 07:09:29 51°18.799 2°59.538 5.7 317 15.9 100670 40
2011-07-07 07:09:34 51°18.792 2°59.515 10.7 286 16 100670 39
2011-07-07 07:09:39 51°18.784 2°59.492 11 319 16 100670 39
2011-07-07 07:09:44 51°18.776 2°59.469 11.7 -999 16 100670 41
2011-07-07 07:09:49 51°18.768 2°59.446 12.9 319 16 100670 41
2011-07-07 07:09:55 51°18.759 2°59.418 10.8 281 16 100670 41
2011-07-07 07:09:59 51°18.753 2°59.4 11 316 16 100670 41
2011-07-07 07:10:04 51°18.745 2°59.378 5.6 279 16 100670 40
2011-07-07 07:10:10 51°18.735 2°59.351 10.9 316 16 100670 40
2011-07-07 07:10:14 51°18.728 2°59.333 13 278 16 100680 41
2011-07-07 07:10:19 51°18.719 2°59.311 11.7 320 16 100680 41
2011-07-07 07:10:23 51°18.712 2°59.294 12.1 285 16 100670 40
2011-07-07 07:10:30 51°18.699 2°59.264 14.4 322 16 100670 40
2011-07-07 07:10:34 51°18.691 2°59.248 14.9 281 16 100670 41
2011-07-07 07:10:39 51°18.682 2°59.227 14.2 320 16 100670 41
2011-07-07 07:10:44 51°18.672 2°59.206 6.6 320 16 100670 41
2011-07-07 07:10:49 51°18.663 2°59.185 11.7 319 16 100670 41
2011-07-07 07:10:55 51°18.651 2°59.161 15 281 16 100670 40
2011-07-07 07:10:59 51°18.643 2°59.144 11 321 16 100670 40
2011-07-07 07:11:04 51°18.634 2°59.123 6.8 280 16 100670 40
2011-07-07 07:11:10 51°18.623 2°59.098 15 320 16 100670 40
2011-07-07 07:11:14 51°18.615 2°59.081 13.4 285 16 100670 40
2011-07-07 07:11:19 51°18.606 2°59.06 6 318 16 100670 40
2011-07-07 07:11:24 51°18.596 2°59.039 12 284 16 100670 40
2011-07-07 07:11:29 51°18.587 2°59.018 14 316 16 100670 40
2011-07-07 07:11:34 51°18.578 2°58.996 11.7 281 16 100670 40
2011-07-07 07:11:39 51°18.569 2°58.975 14.9 317 16 100670 40
2011-07-07 07:11:44 51°18.56 2°58.954 4.4 -999 16 100670 40
2011-07-07 07:11:50 51°18.548 2°58.928 6.6 36 16 100670 40
2011-07-07 07:11:55 51°18.539 2°58.907 11.9 280 16 100670 40
2011-07-07 07:11:59 51°18.532 2°58.89 6.3 319 16 100670 40
2011-07-07 07:12:04 51°18.523 2°58.868 14.5 281 16 100670 40
2011-07-07 07:12:10 51°18.512 2°58.842 13.9 319 16 100670 40
2011-07-07 07:12:14 51°18.506 2°58.824 11.4 278 16 100660 38
2011-07-07 07:12:19 51°18.498 2°58.801 11.8 321 16 100660 38
2011-07-07 07:12:24 51°18.489 2°58.779 12.5 281 16 100670 40
2011-07-07 07:12:30 51°18.48 2°58.751 13.4 319 16 100670 40
2011-07-07 07:12:34 51°18.473 2°58.733 10.5 280 16 100670 40
2011-07-07 07:12:39 51°18.466 2°58.71 11.8 320 16 100670 40
2011-07-07 07:12:44 51°18.458 2°58.686 11.6 319 16 100670 41
2011-07-07 07:12:50 51°18.449 2°58.659 14.2 316 16 100670 41
2011-07-07 07:12:55 51°18.442 2°58.635 13 282 16 100670 40
2011-07-07 07:12:59 51°18.436 2°58.617 11.8 319 16 100670 40
2011-07-07 07:13:04 51°18.428 2°58.595 10.9 281 16 100670 41
2011-07-07 07:13:09 51°18.42 2°58.572 6.2 320 16 100670 41
2011-07-07 07:13:14 51°18.412 2°58.549 6.7 277 16 100680 41
2011-07-07 07:13:19 51°18.403 2°58.527 12.3 319 16 100680 41
2011-07-07 07:13:24 51°18.395 2°58.505 6 278 16 100670 40
2011-07-07 07:13:29 51°18.386 2°58.483 11.9 321 16 100670 40
2011-07-07 07:13:34 51°18.376 2°58.462 6.2 281 16 100670 40
2011-07-07 07:13:39 51°18.367 2°58.441 10.4 322 16 100670 41
2011-07-07 07:13:43 51°18.359 2°58.424 10.8 -999 16 100670 41
2011-07-07 07:13:49 51°18.347 2°58.399 13.2 322 16 100670 41
2011-07-07 07:13:54 51°18.337 2°58.379 15.4 277 16.1 100670 41
2011-07-07 07:13:59 51°18.327 2°58.358 13.6 322 16.1 100670 41
2011-07-07 07:14:04 51°18.317 2°58.338 10.5 281 16.1 100670 41
2011-07-07 07:14:09 51°18.307 2°58.317 11 323 16.1 100670 41
2011-07-07 07:14:15 51°18.294 2°58.293 13.7 278 16.1 100680 41
2011-07-07 07:14:19 51°18.286 2°58.277 12.9 323 16.1 100680 41
2011-07-07 07:14:24 51°18.276 2°58.257 11 283 16.1 100670 40
2011-07-07 07:14:30 51°18.264 2°58.232 6.7 323 16 100680 39
2011-07-07 07:14:35 51°18.254 2°58.212 14.1 285 16 100680 39
2011-07-07 07:14:39 51°18.246 2°58.195 13.3 323 16 100680 39
2011-07-07 07:14:44 51°18.237 2°58.174 6.6 322 16.1 100680 40
2011-07-07 07:14:49 51°18.227 2°58.153 14.5 320 16.1 100670 39
2011-07-07 07:14:55 51°18.216 2°58.128 6.3 280 16.1 100670 39
2011-07-07 07:14:59 51°18.209 2°58.11 7.1 321 16.1 100670 39
2011-07-07 07:15:04 51°18.2 2°58.089 13.3 284 16.1 100670 40
2011-07-07 07:15:10 51°18.19 2°58.062 6.3 322 16.1 100670 40
2011-07-07 07:15:15 51°18.181 2°58.041 14 280 16 100670 39
2011-07-07 07:15:19 51°18.174 2°58.023 6.7 321 16 100670 39
2011-07-07 07:15:24 51°18.166 2°58.001 13.3 280 16 100670 40
2011-07-07 07:15:29 51°18.157 2°57.978 12.7 320 16 100670 40
2011-07-07 07:15:34 51°18.149 2°57.955 11.2 281 16.1 100670 40
2011-07-07 07:15:39 51°18.14 2°57.933 6.4 322 16.1 100670 40
2011-07-07 07:15:43 51°18.134 2°57.915 11.7 -999 16.1 100670 40
2011-07-07 07:15:49 51°18.123 2°57.888 15.1 321 16.1 100670 40
2011-07-07 07:15:54 51°18.114 2°57.867 14.6 283 16.1 100680 41
2011-07-07 07:15:59 51°18.105 2°57.845 10.9 322 16.2 100670 41
2011-07-07 07:16:04 51°18.096 2°57.824 6.6 283 16.2 100670 41
2011-07-07 07:16:10 51°18.084 2°57.799 13.4 322 16.2 100680 42
2011-07-07 07:16:15 51°18.075 2°57.779 11.9 285 16.2 100680 42
2011-07-07 07:16:19 51°18.066 2°57.762 16.1 323 16.2 100680 42
2011-07-07 07:16:24 51°18.057 2°57.742 15.6 277 16.1 100670 40
2011-07-07 07:16:29 51°18.046 2°57.722 16.3 319 16.1 100670 41
2011-07-07 07:16:35 51°18.034 2°57.698 7.2 280 16.1 100670 41
2011-07-07 07:16:39 51°18.026 2°57.682 6.8 320 16.1 100670 41
2011-07-07 07:16:44 51°18.016 2°57.662 17.2 282 16.1 100670 40
2011-07-07 07:16:50 51°18.004 2°57.637 12.5 320 16.1 100670 40
2011-07-07 07:16:54 51°17.996 2°57.621 15.8 284 16.1 100670 40
2011-07-07 07:16:59 51°17.986 2°57.6 14 319 16.1 100670 40
2011-07-07 07:17:03 51°17.979 2°57.584 15.7 282 16.1 100660 40
2011-07-07 07:17:10 51°17.966 2°57.554 15 319 16.1 100660 40
2011-07-07 07:17:14 51°17.959 2°57.536 7 280 16.2 100670 41
2011-07-07 07:17:19 51°17.95 2°57.515 13.2 317 16.2 100670 41
2011-07-07 07:17:24 51°17.942 2°57.492 12.1 280 16.2 100650 40
2011-07-07 07:17:29 51°17.933 2°57.47 12.7 318 16.2 100650 40
2011-07-07 07:17:35 51°17.923 2°57.443 11.8 280 16.2 100670 38
2011-07-07 07:17:39 51°17.916 2°57.426 12.8 320 16.1 100660 40
2011-07-07 07:17:44 51°17.908 2°57.403 11.1 318 16.1 100660 40
2011-07-07 07:17:50 51°17.897 2°57.377 14.8 321 16.1 100660 40
2011-07-07 07:17:54 51°17.89 2°57.359 10.2 281 16.1 100660 40
2011-07-07 07:17:59 51°17.882 2°57.337 12.1 321 16.2 100670 41
2011-07-07 07:18:04 51°17.873 2°57.314 12.1 283 16.2 100670 41
2011-07-07 07:18:09 51°17.864 2°57.292 12.8 320 16.2 100670 41
2011-07-07 07:18:14 51°17.855 2°57.271 13.2 285 16.2 100680 41
2011-07-07 07:18:19 51°17.845 2°57.249 6.3 321 16.2 100680 42
2011-07-07 07:18:24 51°17.835 2°57.228 10.9 283 16.2 100680 42
2011-07-07 07:18:30 51°17.823 2°57.204 16.8 322 16.2 100670 41
2011-07-07 07:18:35 51°17.813 2°57.183 10 282 16.2 100670 41
2011-07-07 07:18:39 51°17.805 2°57.167 11.9 325 16.2 100670 41
2011-07-07 07:18:44 51°17.795 2°57.146 15.5 283 16.2 100670 41
2011-07-07 07:18:50 51°17.782 2°57.122 16.9 325 16.2 100670 41
2011-07-07 07:18:54 51°17.774 2°57.105 12.3 279 16.3 100680 41
2011-07-07 07:18:59 51°17.764 2°57.084 11.8 325 16.3 100680 41
2011-07-07 07:19:04 51°17.754 2°57.063 7 283 16.2 100680 41
2011-07-07 07:19:10 51°17.743 2°57.037 11.8 322 16.2 100680 41
2011-07-07 07:19:14 51°17.736 2°57.019 11.8 280 16.2 100680 41
2011-07-07 07:19:19 51°17.727 2°56.997 6.5 322 16.2 100680 41
2011-07-07 07:19:24 51°17.718 2°56.975 10.9 281 16.2 100670 40
2011-07-07 07:19:30 51°17.706 2°56.949 7 319 16.1 100680 40
2011-07-07 07:19:35 51°17.697 2°56.927 7 280 16.1 100680 40
2011-07-07 07:19:39 51°17.689 2°56.91 7.2 317 16.1 100680 40
2011-07-07 07:19:44 51°17.679 2°56.889 10 319 16.2 100670 39
2011-07-07 07:19:49 51°17.668 2°56.869 6.8 320 16.2 100670 39
2011-07-07 07:19:55 51°17.655 2°56.845 7.5 281 16.2 100680 40
2011-07-07 07:19:59 51°17.647 2°56.829 6.7 322 16.2 100680 40
2011-07-07 07:20:04 51°17.636 2°56.808 11 281 16.2 100670 41
2011-07-07 07:20:09 51°17.625 2°56.789 13.3 326 16.2 100670 41
2011-07-07 07:20:14 51°17.614 2°56.769 6.2 282 16.2 100660 39
2011-07-07 07:20:19 51°17.602 2°56.75 6.2 324 16.2 100670 40
2011-07-07 07:20:23 51°17.594 2°56.734 13.6 278 16.2 100670 40
2011-07-07 07:20:29 51°17.58 2°56.71 6.8 324 16.2 100670 40
2011-07-07 07:20:34 51°17.57 2°56.69 14.2 283 16.2 100680 41
2011-07-07 07:20:39 51°17.559 2°56.67 6.3 324 16.2 100690 41
2011-07-07 07:20:44 51°17.549 2°56.649 11.6 281 16.2 100690 41
2011-07-07 07:20:49 51°17.538 2°56.628 6.9 320 16.2 100670 40
2011-07-07 07:20:55 51°17.526 2°56.603 14.1 281 16.2 100670 40
2011-07-07 07:20:59 51°17.518 2°56.586 13.6 321 16.2 100670 40
2011-07-07 07:21:04 51°17.508 2°56.565 8.2 282 16.2 100680 40
2011-07-07 07:21:10 51°17.497 2°56.539 6.8 321 16.2 100680 40
2011-07-07 07:21:15 51°17.487 2°56.517 16 284 16.2 100680 40
2011-07-07 07:21:19 51°17.48 2°56.499 17.3 319 16.2 100680 40
2011-07-07 07:21:24 51°17.471 2°56.477 17.9 281 16.2 100670 40
2011-07-07 07:21:29 51°17.462 2°56.456 9.8 321 16.2 100670 40
2011-07-07 07:21:35 51°17.451 2°56.429 15.4 282 16.2 100670 40
2011-07-07 07:21:39 51°17.443 2°56.412 6.9 322 16.2 100670 40
2011-07-07 07:21:44 51°17.433 2°56.39 6.5 321 16.2 100670 40
2011-07-07 07:21:50 51°17.422 2°56.364 11.7 323 16.2 100660 40
2011-07-07 07:21:55 51°17.412 2°56.343 15 285 16.2 100660 40
2011-07-07 07:21:59 51°17.404 2°56.327 12.1 325 16.2 100660 40
2011-07-07 07:22:04 51°17.393 2°56.306 4.4 280 16.2 100660 41
2011-07-07 07:22:09 51°17.383 2°56.286 12.1 325 16.2 100660 41
2011-07-07 07:22:15 51°17.37 2°56.262 7.8 280 16.2 100670 40
2011-07-07 07:22:19 51°17.361 2°56.246 4.9 325 16.2 100670 40
2011-07-07 07:22:24 51°17.35 2°56.226 6.8 279 16.2 100670 40
2011-07-07 07:22:29 51°17.339 2°56.206 16.9 324 16.2 100670 40
2011-07-07 07:22:34 51°17.328 2°56.186 7.7 281 16.1 100670 40
2011-07-07 07:22:39 51°17.317 2°56.166 7 325 16.1 100670 40
2011-07-07 07:22:44 51°17.307 2°56.145 13 280 16.1 100670 40
2011-07-07 07:22:50 51°17.294 2°56.12 10.9 324 16.1 100670 39
2011-07-07 07:22:55 51°17.284 2°56.098 12.9 280 16.1 100670 39
2011-07-07 07:22:59 51°17.276 2°56.081 14.1 324 16.1 100670 39
2011-07-07 07:23:04 51°17.267 2°56.059 7.2 283 16.1 100670 40
2011-07-07 07:23:09 51°17.257 2°56.037 17.3 321 16.1 100680 41
2011-07-07 07:23:15 51°17.246 2°56.01 14.7 284 16.1 100680 41
2011-07-07 07:23:19 51°17.238 2°55.992 7.2 324 16.1 100680 41
2011-07-07 07:23:24 51°17.229 2°55.97 19 283 16.1 100680 40
2011-07-07 07:23:30 51°17.217 2°55.943 13.7 318 16.1 100680 40
2011-07-07 07:23:34 51°17.21 2°55.925 15.9 281 16.1 100660 40
2011-07-07 07:23:39 51°17.201 2°55.903 14.1 319 16.1 100660 40
2011-07-07 07:23:43 51°17.193 2°55.885 15.3 319 16.1 100670 40
2011-07-07 07:23:50 51°17.179 2°55.855 12.6 320 16.1 100670 40
2011-07-07 07:23:54 51°17.171 2°55.837 12.1 282 16.1 100670 41
2011-07-07 07:23:59 51°17.161 2°55.816 14.5 322 16.1 100670 41
2011-07-07 07:24:04 51°17.15 2°55.795 16.7 282 16.1 100660 41
2011-07-07 07:24:09 51°17.139 2°55.775 13.8 323 16.1 100660 41
2011-07-07 07:24:15 51°17.126 2°55.751 16.4 282 16.1 100660 40
2011-07-07 07:24:19 51°17.117 2°55.734 7 324 16.1 100660 40
2011-07-07 07:24:24 51°17.106 2°55.714 4.6 283 16.1 100660 40
2011-07-07 07:24:30 51°17.092 2°55.69 15.1 323 16.1 100660 40
2011-07-07 07:24:35 51°17.081 2°55.67 9.5 278 16.1 100670 41
2011-07-07 07:24:39 51°17.072 2°55.654 6.8 322 16.1 100670 41
2011-07-07 07:24:44 51°17.06 2°55.633 12.6 280 16.1 100670 41
2011-07-07 07:24:49 51°17.049 2°55.613 13.7 321 16.1 100670 41
2011-07-07 07:24:54 51°17.039 2°55.591 13.8 282 16.1 100670 40
2011-07-07 07:24:59 51°17.028 2°55.57 14 322 16.1 100670 40
2011-07-07 07:25:04 51°17.018 2°55.548 12.5 286 16.1 100670 40
2011-07-07 07:25:10 51°17.006 2°55.521 6.6 320 16.1 100670 40
2011-07-07 07:25:15 51°16.996 2°55.499 11.2 279 16.1 100670 40
2011-07-07 07:25:19 51°16.989 2°55.481 6.8 322 16.1 100670 40
2011-07-07 07:25:24 51°16.979 2°55.459 11.3 279 16.1 100670 40
2011-07-07 07:25:30 51°16.968 2°55.432 9.7 323 16.1 100670 40
2011-07-07 07:25:34 51°16.96 2°55.414 15.8 282 16 100670 39
2011-07-07 07:25:39 51°16.95 2°55.391 14.2 321 16 100670 39
2011-07-07 07:25:45 51°16.939 2°55.364 15.7 -999 16.1 100670 40
2011-07-07 07:25:50 51°16.93 2°55.342 7.4 320 16.1 100670 40
2011-07-07 07:25:54 51°16.922 2°55.324 4.4 279 16.1 100670 41
2011-07-07 07:25:59 51°16.912 2°55.303 15.4 322 16.1 100670 41
2011-07-07 07:26:04 51°16.902 2°55.282 16.6 285 16.1 100670 40
2011-07-07 07:26:10 51°16.889 2°55.257 16.3 321 16.1 100670 40
2011-07-07 07:26:15 51°16.878 2°55.236 6.9 281 16.1 100670 40
2011-07-07 07:26:19 51°16.87 2°55.22 12.3 326 16.1 100670 40
2011-07-07 07:26:24 51°16.859 2°55.199 9.4 281 16.1 100670 41
2011-07-07 07:26:29 51°16.848 2°55.179 15.6 328 16.1 100670 41
2011-07-07 07:26:35 51°16.834 2°55.155 13.1 282 16.1 100660 41
2011-07-07 07:26:39 51°16.825 2°55.139 12.9 325 16.1 100660 41
2011-07-07 07:26:44 51°16.814 2°55.119 15.9 328 16.1 100670 41
2011-07-07 07:26:49 51°16.803 2°55.098 7.8 320 16.1 100670 41
2011-07-07 07:26:55 51°16.791 2°55.074 6.5 282 16.1 100670 40
2011-07-07 07:26:59 51°16.782 2°55.057 6.8 322 16.1 100660 40
2011-07-07 07:27:03 51°16.774 2°55.04 10.8 281 16.1 100660 40
2011-07-07 07:27:09 51°16.761 2°55.014 14.4 323 16.1 100660 40
2011-07-07 07:27:14 51°16.751 2°54.992 15.4 282 16.1 100670 40
2011-07-07 07:27:19 51°16.741 2°54.97 14.2 324 16.1 100670 41
2011-07-07 07:27:24 51°16.732 2°54.948 13.6 285 16.1 100670 41
2011-07-07 07:27:29 51°16.722 2°54.925 6.5 322 16.1 100670 40
2011-07-07 07:27:35 51°16.711 2°54.898 14.2 281 16.1 100670 40
2011-07-07 07:27:39 51°16.703 2°54.88 14.8 323 16.1 100670 40
2011-07-07 07:27:44 51°16.693 2°54.858 15.4 -999 16.1 100670 42
2011-07-07 07:27:50 51°16.682 2°54.831 16.7 322 16.1 100670 42
2011-07-07 07:27:55 51°16.672 2°54.809 7.2 281 16.1 100670 42
2011-07-07 07:27:59 51°16.664 2°54.791 10 324 16.1 100670 42
2011-07-07 07:28:04 51°16.654 2°54.77 7.7 281 16.2 100670 42
2011-07-07 07:28:09 51°16.643 2°54.749 7.7 324 16.1 100660 40
2011-07-07 07:28:15 51°16.63 2°54.724 8.5 282 16.1 100660 40
2011-07-07 07:28:19 51°16.621 2°54.708 8 323 16.1 100660 40
2011-07-07 07:28:24 51°16.611 2°54.687 8.1 281 16.1 100660 40
2011-07-07 07:28:30 51°16.597 2°54.663 17.5 324 16.1 100670 41
2011-07-07 07:28:35 51°16.586 2°54.642 7.3 280 16.1 100670 41
2011-07-07 07:28:39 51°16.577 2°54.626 17.2 324 16.1 100670 41
2011-07-07 07:28:44 51°16.566 2°54.605 10.8 321 16.1 100670 41
2011-07-07 07:28:49 51°16.555 2°54.585 7.3 323 16.1 100670 41
2011-07-07 07:28:55 51°16.542 2°54.56 16.9 280 16.1 100670 41
2011-07-07 07:28:59 51°16.533 2°54.544 15 324 16.1 100670 41
2011-07-07 07:29:04 51°16.522 2°54.523 12 281 16 100670 40
2011-07-07 07:29:09 51°16.511 2°54.503 7.2 325 16 100670 40
2011-07-07 07:29:14 51°16.5 2°54.482 4.9 280 16 100660 41
2011-07-07 07:29:19 51°16.489 2°54.461 13.3 324 16 100670 40
2011-07-07 07:29:24 51°16.478 2°54.441 8.5 281 16 100670 40
2011-07-07 07:29:30 51°16.465 2°54.415 7.6 322 16 100670 40
2011-07-07 07:29:35 51°16.455 2°54.394 17.4 285 16 100670 40
2011-07-07 07:29:39 51°16.447 2°54.376 15.7 319 16 100660 40
2011-07-07 07:29:44 51°16.437 2°54.354 7 -999 16 100660 40
2011-07-07 07:29:49 51°16.428 2°54.332 7.7 316 16 100670 40
2011-07-07 07:29:55 51°16.416 2°54.305 12.6 281 16 100670 40
2011-07-07 07:29:59 51°16.409 2°54.287 7.1 321 16 100670 40
2011-07-07 07:30:04 51°16.399 2°54.265 15.5 284 15.9 100670 40
2011-07-07 07:30:10 51°16.387 2°54.238 6.9 320 15.9 100670 40
2011-07-07 07:30:14 51°16.379 2°54.221 6.7 281 16 100670 40
2011-07-07 07:30:19 51°16.368 2°54.199 7.5 322 16 100670 40
2011-07-07 07:30:23 51°16.36 2°54.183 7.3 283 16 100670 40
2011-07-07 07:30:30 51°16.345 2°54.153 7.3 322 16 100670 40
2011-07-07 07:30:34 51°16.337 2°54.136 16.6 283 15.9 100660 40
2011-07-07 07:30:39 51°16.326 2°54.116 7.5 324 15.9 100660 40
2011-07-07 07:30:44 51°16.315 2°54.095 7.6 324 15.9 100660 40
2011-07-07 07:30:49 51°16.304 2°54.075 6.7 325 15.9 100660 39
2011-07-07 07:30:55 51°16.29 2°54.05 9.2 279 15.9 100660 39
2011-07-07 07:30:59 51°16.281 2°54.034 7.2 323 15.9 100660 40
2011-07-07 07:31:04 51°16.271 2°54.013 7.4 281 15.9 100660 40
2011-07-07 07:31:10 51°16.258 2°53.988 7.9 323 15.9 100660 40
2011-07-07 07:31:15 51°16.247 2°53.967 6.6 282 15.9 100670 40
2011-07-07 07:31:19 51°16.239 2°53.95 7.1 320 15.9 100660 40
2011-07-07 07:31:24 51°16.229 2°53.928 12.4 281 15.9 100660 40
2011-07-07 07:31:29 51°16.219 2°53.906 13.3 321 15.9 100660 40
2011-07-07 07:31:34 51°16.209 2°53.884 15.4 280 15.9 100670 41
2011-07-07 07:31:39 51°16.199 2°53.861 16.4 323 15.9 100670 41
2011-07-07 07:31:44 51°16.19 2°53.839 14.9 -999 15.9 100670 41
2011-07-07 07:31:50 51°16.178 2°53.811 7.5 322 15.9 100670 41
2011-07-07 07:31:55 51°16.169 2°53.789 7.1 283 15.9 100670 41
2011-07-07 07:31:59 51°16.161 2°53.771 14.9 324 15.9 100670 41
2011-07-07 07:32:04 51°16.152 2°53.749 14.2 284 15.9 100670 41
2011-07-07 07:32:10 51°16.139 2°53.723 16.8 323 15.9 100670 41
2011-07-07 07:32:14 51°16.131 2°53.705 6.8 283 15.9 100670 41
2011-07-07 07:32:19 51°16.121 2°53.684 15.6 322 15.9 100670 41
2011-07-07 07:32:24 51°16.11 2°53.663 15.1 283 15.9 100670 41
2011-07-07 07:32:30 51°16.097 2°53.638 15.8 322 15.9 100670 41
2011-07-07 07:32:34 51°16.088 2°53.621 6.9 286 15.9 100660 40
2011-07-07 07:32:39 51°16.077 2°53.6 7 323 15.9 100660 40
2011-07-07 07:32:44 51°16.066 2°53.579 4.7 324 15.9 100670 41
2011-07-07 07:32:50 51°16.053 2°53.554 11.8 319 15.9 100670 41
2011-07-07 07:32:55 51°16.042 2°53.534 15 281 15.9 100670 41
2011-07-07 07:32:59 51°16.033 2°53.517 6.7 320 15.9 100670 41
2011-07-07 07:33:04 51°16.023 2°53.496 4.7 280 15.9 100670 41
2011-07-07 07:33:09 51°16.012 2°53.475 6.3 320 15.9 100670 41
2011-07-07 07:33:15 51°15.999 2°53.449 7.5 283 15.9 100660 40
2011-07-07 07:33:19 51°15.991 2°53.432 6.8 323 15.9 100660 40
2011-07-07 07:33:24 51°15.981 2°53.41 11.5 283 15.9 100670 41
2011-07-07 07:33:29 51°15.971 2°53.387 6.9 321 15.9 100670 41
2011-07-07 07:33:34 51°15.961 2°53.365 14.8 282 15.9 100680 40
2011-07-07 07:33:39 51°15.951 2°53.342 7.4 319 15.9 100670 41
2011-07-07 07:33:43 51°15.943 2°53.324 12.8 -999 15.9 100670 41
2011-07-07 07:33:49 51°15.932 2°53.297 7 323 15.9 100670 41
2011-07-07 07:33:54 51°15.922 2°53.275 13 281 15.9 100670 42
2011-07-07 07:33:59 51°15.912 2°53.252 16.4 323 15.9 100670 42
2011-07-07 07:34:04 51°15.902 2°53.23 15.3 280 15.9 100670 42
2011-07-07 07:34:09 51°15.892 2°53.208 7.4 324 15.9 100660 41
2011-07-07 07:34:15 51°15.88 2°53.182 13.6 284 15.9 100660 41
2011-07-07 07:34:19 51°15.872 2°53.164 12.3 322 15.9 100660 41
2011-07-07 07:34:24 51°15.862 2°53.142 5.1 283 15.9 100660 41
2011-07-07 07:34:30 51°15.85 2°53.115 12.2 321 15.8 100670 41
2011-07-07 07:34:35 51°15.84 2°53.093 13.5 283 15.8 100670 41
2011-07-07 07:34:39 51°15.832 2°53.076 6.6 323 15.8 100670 41
2011-07-07 07:34:44 51°15.821 2°53.055 13.8 322 15.9 100660 41
2011-07-07 07:34:49 51°15.81 2°53.034 3.1 320 15.9 100670 41
2011-07-07 07:34:55 51°15.797 2°53.008 15.1 281 15.9 100670 41
2011-07-07 07:34:59 51°15.788 2°52.992 15.8 322 15.9 100670 41
2011-07-07 07:35:04 51°15.777 2°52.971 7.5 286 15.8 100670 41
2011-07-07 07:35:10 51°15.764 2°52.946 7.7 321 15.8 100670 41
2011-07-07 07:35:15 51°15.752 2°52.925 13.8 279 15.8 100670 41
2011-07-07 07:35:19 51°15.743 2°52.908 6.2 322 15.8 100670 41
2011-07-07 07:35:24 51°15.732 2°52.887 8.1 282 15.8 100680 41
2011-07-07 07:35:29 51°15.721 2°52.866 4.4 324 15.8 100680 41
2011-07-07 07:35:35 51°15.708 2°52.841 6.2 280 15.8 100670 41
2011-07-07 07:35:39 51°15.699 2°52.824 6.7 320 15.8 100670 41
2011-07-07 07:35:43 51°15.69 2°52.807 5.9 279 15.8 100670 41
2011-07-07 07:35:49 51°15.678 2°52.781 6.8 323 15.8 100670 41
2011-07-07 07:35:54 51°15.667 2°52.76 6.7 285 15.8 100670 40
2011-07-07 07:35:59 51°15.657 2°52.738 4.3 320 15.8 100670 41
2011-07-07 07:36:04 51°15.647 2°52.715 13.2 282 15.8 100670 41
2011-07-07 07:36:10 51°15.635 2°52.688 11.4 322 15.8 100670 41
2011-07-07 07:36:15 51°15.626 2°52.665 6.4 279 15.8 100660 40
2011-07-07 07:36:19 51°15.619 2°52.646 6.4 320 15.8 100660 40
2011-07-07 07:36:24 51°15.61 2°52.622 6.5 281 15.8 100670 41
2011-07-07 07:36:29 51°15.601 2°52.598 15.5 317 15.9 100670 42
2011-07-07 07:36:35 51°15.591 2°52.569 13.7 279 15.9 100670 42
2011-07-07 07:36:39 51°15.584 2°52.55 11.5 318 15.9 100670 42
2011-07-07 07:36:44 51°15.576 2°52.527 11.2 282 15.9 100670 42
2011-07-07 07:36:50 51°15.565 2°52.498 6.9 320 15.9 100670 42
2011-07-07 07:36:54 51°15.558 2°52.48 13.8 283 15.9 100660 42
2011-07-07 07:36:59 51°15.549 2°52.457 6.4 321 15.9 100660 42
2011-07-07 07:37:05 51°15.537 2°52.429 15.1 282 15.8 100670 41
2011-07-07 07:37:10 51°15.528 2°52.406 7.1 320 15.8 100670 41
2011-07-07 07:37:14 51°15.52 2°52.388 15 282 15.9 100670 42
2011-07-07 07:37:19 51°15.51 2°52.366 13.5 321 15.9 100670 42
2011-07-07 07:37:24 51°15.5 2°52.343 14.9 280 15.9 100670 42
2011-07-07 07:37:29 51°15.491 2°52.32 7 320 15.9 100670 42
2011-07-07 07:37:35 51°15.479 2°52.293 14.4 284 15.9 100670 41
2011-07-07 07:37:39 51°15.471 2°52.275 11.7 319 15.8 100660 41
2011-07-07 07:37:43 51°15.464 2°52.257 13.8 -999 15.8 100660 41
2011-07-07 07:37:49 51°15.453 2°52.229 7.3 319 15.8 100660 41
2011-07-07 07:37:54 51°15.443 2°52.206 9.1 281 15.8 100660 41
2011-07-07 07:37:59 51°15.434 2°52.183 14.8 317 15.8 100660 41
2011-07-07 07:38:04 51°15.425 2°52.16 6.3 279 15.8 100660 41
2011-07-07 07:38:09 51°15.416 2°52.136 12.6 316 15.8 100660 41
2011-07-07 07:38:14 51°15.408 2°52.112 11.5 282 15.8 100670 41
2011-07-07 07:38:19 51°15.399 2°52.088 6.8 315 15.8 100650 40
2011-07-07 07:38:24 51°15.391 2°52.064 14.5 282 15.8 100650 40
2011-07-07 07:38:30 51°15.381 2°52.034 12.1 318 15.8 100650 40
2011-07-07 07:38:35 51°15.374 2°52.01 14.2 280 15.8 100660 41
2011-07-07 07:38:39 51°15.367 2°51.99 11 319 15.8 100660 42
2011-07-07 07:38:44 51°15.359 2°51.966 11.9 319 15.8 100660 42
2011-07-07 07:38:50 51°15.349 2°51.937 10.3 321 15.8 100660 42
2011-07-07 07:38:54 51°15.343 2°51.917 7 281 15.8 100670 40
2011-07-07 07:38:59 51°15.334 2°51.893 15.9 321 15.8 100670 40
2011-07-07 07:39:05 51°15.324 2°51.864 13.6 279 15.9 100660 42
2011-07-07 07:39:10 51°15.315 2°51.841 11.4 318 15.9 100660 42
2011-07-07 07:39:14 51°15.308 2°51.822 13.3 283 15.9 100670 42
2011-07-07 07:39:19 51°15.299 2°51.798 11.7 322 15.9 100670 42
2011-07-07 07:39:24 51°15.289 2°51.775 6.6 278 15.9 100670 42
2011-07-07 07:39:30 51°15.278 2°51.747 6.7 319 15.8 100670 41
2011-07-07 07:39:35 51°15.269 2°51.725 7.2 282 15.8 100670 41
2011-07-07 07:39:39 51°15.261 2°51.706 12.9 321 15.8 100670 41
2011-07-07 07:39:44 51°15.251 2°51.684 12.1 319 15.9 100670 42
2011-07-07 07:39:49 51°15.241 2°51.661 12.8 319 15.9 100660 42
2011-07-07 07:39:55 51°15.229 2°51.634 14.2 283 15.9 100660 42
2011-07-07 07:39:59 51°15.222 2°51.616 13.6 322 15.9 100660 42
2011-07-07 07:40:04 51°15.212 2°51.593 6.6 280 15.9 100670 41
2011-07-07 07:40:09 51°15.202 2°51.57 14.8 322 15.9 100670 41
2011-07-07 07:40:15 51°15.191 2°51.542 11.8 279 15.9 100670 42
2011-07-07 07:40:19 51°15.183 2°51.524 13.9 321 15.9 100670 42
2011-07-07 07:40:23 51°15.176 2°51.505 13.6 278 15.9 100670 42
2011-07-07 07:40:29 51°15.164 2°51.477 6.2 320 15.9 100670 42
2011-07-07 07:40:35 51°15.153 2°51.449 6.5 282 15.9 100670 41
2011-07-07 07:40:39 51°15.146 2°51.431 13.5 319 15.9 100670 41
2011-07-07 07:40:44 51°15.136 2°51.408 16.1 283 15.9 100670 41
2011-07-07 07:40:49 51°15.127 2°51.384 14.4 318 15.9 100670 42
2011-07-07 07:40:55 51°15.116 2°51.356 6.4 279 15.9 100670 42
2011-07-07 07:40:59 51°15.108 2°51.338 6.6 318 15.9 100670 42
2011-07-07 07:41:04 51°15.099 2°51.315 16.4 283 15.9 100680 41
2011-07-07 07:41:10 51°15.087 2°51.288 11.7 322 15.9 100680 41
2011-07-07 07:41:14 51°15.079 2°51.269 6.5 279 15.9 100670 41
2011-07-07 07:41:19 51°15.068 2°51.247 12.6 322 15.9 100670 41
2011-07-07 07:41:23 51°15.06 2°51.229 7 280 15.9 100670 42
2011-07-07 07:41:30 51°15.045 2°51.199 12.8 322 15.9 100670 42
2011-07-07 07:41:34 51°15.037 2°51.181 6.1 281 15.9 100680 41
2011-07-07 07:41:39 51°15.026 2°51.16 15.5 321 15.9 100680 41
2011-07-07 07:41:44 51°15.015 2°51.138 12.1 320 15.9 100680 42
2011-07-07 07:41:49 51°15.005 2°51.117 13.4 320 16 100680 42
2011-07-07 07:41:55 51°14.991 2°51.091 6.5 280 16 100680 42
2011-07-07 07:41:59 51°14.983 2°51.074 6.2 322 16 100680 42
2011-07-07 07:42:04 51°14.972 2°51.052 6.7 282 15.9 100670 41